When you browse on this site, cookies collect data to enhance your experience and personalize the content and advertising you see.
Visit our Privacy Policy to learn more. By continuing to use the site, you agree to this use of cookies and data.
  • In Latvia
  • List of Countries
  • For 7 days
  • Water Temperature
  • Weather Map
  • Weather Widgets
  • user-avatar
    Login

    Hourly Weather Tibissa

    Today, 2 June, Tuesday

    Time Temperature Precipitation Wind Pressure Humidity
    00:00 +20°C° 0 mm 2 mps 685 mmHg 75%
    01:00 +21°C° 0 mm 1 mps 685 mmHg 79%
    02:00 +20°C° 0 mm 1 mps 685 mmHg 81%
    03:00 +20°C° 0 mm 1 mps 685 mmHg 83%
    04:00 +19°C° 0 mm 1 mps 685 mmHg 85%
    05:00 +19°C° 0 mm 1 mps 685 mmHg 84%
    06:00 +19°C° 0 mm 1 mps 685 mmHg 83%
    07:00 +18°C° 0 mm 2 mps 685 mmHg 82%
    08:00 +20°C° 0 mm 2 mps 685 mmHg 72%
    09:00 +21°C° 0 mm 2 mps 686 mmHg 62%
    10:00 +23°C° 0 mm 2 mps 686 mmHg 52%
    11:00 +25°C° 0 mm 3 mps 686 mmHg 45%
    12:00 +26°C° 0 mm 4 mps 686 mmHg 38%
    13:00 +27°C° 0 mm 4 mps 686 mmHg 32%
    14:00 +28°C° 0 mm 5 mps 686 mmHg 30%
    15:00 +28°C° 0 mm 5 mps 686 mmHg 28%
    16:00 +29°C° 0 mm 6 mps 685 mmHg 26%
    17:00 +28°C° 0 mm 6 mps 685 mmHg 30%
    18:00 +27°C° 0 mm 6 mps 685 mmHg 35%
    19:00 +26°C° 0 mm 6 mps 685 mmHg 39%
    20:00 +25°C° 0 mm 5 mps 685 mmHg 43%
    21:00 +24°C° 0 mm 3 mps 685 mmHg 47%
    22:00 +23°C° 0 mm 2 mps 685 mmHg 52%
    23:00 +21°C° 0 mm 2 mps 685 mmHg 54%

    Tomorrow, 3 June, Wednesday

    Time Temperature Precipitation Wind Pressure Humidity
    00:00 +22°C° 0 mm 1 mps 685 mmHg 56%
    01:00 +19°C° 0 mm 0 mps 684 mmHg 59%
    02:00 +19°C° 0 mm 0 mps 684 mmHg 60%
    03:00 +18°C° 0 mm 0 mps 683 mmHg 61%
    04:00 +18°C° 0 mm 0 mps 683 mmHg 63%
    05:00 +21°C° 0 mm 1 mps 683 mmHg 58%
    06:00 +21°C° 0 mm 1 mps 683 mmHg 53%
    07:00 +22°C° 0 mm 1 mps 683 mmHg 48%
    08:00 +23°C° 0 mm 2 mps 684 mmHg 45%
    09:00 +24°C° 0 mm 2 mps 684 mmHg 42%
    10:00 +26°C° 0 mm 3 mps 685 mmHg 39%
    11:00 +27°C° 0 mm 4 mps 685 mmHg 37%
    12:00 +28°C° 0 mm 4 mps 684 mmHg 36%
    13:00 +29°C° 0 mm 5 mps 684 mmHg 34%
    14:00 +29°C° 0.1 mm 5 mps 684 mmHg 35%
    15:00 +28°C° 0.1 mm 5 mps 683 mmHg 35%
    16:00 +28°C° 0.1 mm 4 mps 683 mmHg 36%
    17:00 +28°C° 0.1 mm 4 mps 683 mmHg 38%
    18:00 +28°C° 0.1 mm 3 mps 683 mmHg 39%
    19:00 +27°C° 0.1 mm 2 mps 682 mmHg 40%
    20:00 +26°C° 0 mm 2 mps 683 mmHg 43%
    21:00 +25°C° 0 mm 2 mps 683 mmHg 45%
    22:00 +25°C° 0 mm 3 mps 683 mmHg 47%
    23:00 +24°C° 0 mm 3 mps 682 mmHg 49%

    Day after tomorrow, 4 June, Thursday

    Time Temperature Precipitation Wind Pressure Humidity
    00:00 +24°C° 0 mm 3 mps 682 mmHg 51%
    01:00 +22°C° 0 mm 3 mps 681 mmHg 53%
    02:00 +22°C° 0 mm 3 mps 681 mmHg 54%
    03:00 +21°C° 0 mm 3 mps 681 mmHg 54%
    04:00 +21°C° 0 mm 3 mps 681 mmHg 55%
    05:00 +22°C° 0 mm 3 mps 681 mmHg 52%
    06:00 +24°C° 0 mm 3 mps 681 mmHg 50%
    07:00 +24°C° 0 mm 3 mps 681 mmHg 47%
    08:00 +26°C° 0 mm 4 mps 681 mmHg 42%
    09:00 +28°C° 0 mm 4 mps 682 mmHg 36%
    10:00 +29°C° 0 mm 5 mps 682 mmHg 30%
    11:00 +32°C° 0 mm 5 mps 682 mmHg 28%
    12:00 +33°C° 0 mm 6 mps 682 mmHg 27%
    13:00 +34°C° 0 mm 7 mps 681 mmHg 25%
    14:00 +34°C° 0 mm 7 mps 681 mmHg 24%
    15:00 +34°C° 0 mm 8 mps 681 mmHg 23%
    16:00 +35°C° 0 mm 9 mps 680 mmHg 22%
    17:00 +34°C° 0 mm 7 mps 680 mmHg 25%
    18:00 +33°C° 0 mm 5 mps 680 mmHg 27%
    19:00 +32°C° 0 mm 4 mps 680 mmHg 30%
    20:00 +27°C° 0.1 mm 4 mps 680 mmHg 40%
    21:00 +23°C° 0.1 mm 4 mps 679 mmHg 50%
    22:00 +20°C° 0.1 mm 4 mps 679 mmHg 59%
    23:00 +19°C° 0.1 mm 5 mps 679 mmHg 61%

    5 June, Friday

    Time Temperature Precipitation Wind Pressure Humidity
    00:00 +19°C° 0.1 mm 5 mps 679 mmHg 62%
    01:00 +17°C° 0.1 mm 5 mps 679 mmHg 64%
    02:00 +17°C° 0.1 mm 5 mps 679 mmHg 64%
    03:00 +18°C° 0.1 mm 4 mps 679 mmHg 64%
    04:00 +18°C° 0.1 mm 4 mps 679 mmHg 65%
    05:00 +17°C° 0 mm 5 mps 679 mmHg 64%
    06:00 +17°C° 0 mm 6 mps 680 mmHg 62%
    07:00 +17°C° 0 mm 6 mps 680 mmHg 61%
    08:00 +20°C° 0 mm 7 mps 681 mmHg 54%
    09:00 +21°C° 0 mm 8 mps 681 mmHg 47%
    10:00 +23°C° 0 mm 10 mps 682 mmHg 41%
    11:00 +24°C° 0 mm 9 mps 682 mmHg 37%
    12:00 +26°C° 0 mm 9 mps 683 mmHg 34%
    13:00 +27°C° 0 mm 8 mps 683 mmHg 30%
    14:00 +27°C° 0 mm 8 mps 683 mmHg 30%
    15:00 +27°C° 0 mm 8 mps 683 mmHg 29%
    16:00 +27°C° 0 mm 7 mps 683 mmHg 28%
    17:00 +26°C° 0 mm 7 mps 683 mmHg 30%
    18:00 +24°C° 0 mm 6 mps 683 mmHg 33%
    19:00 +23°C° 0 mm 5 mps 684 mmHg 35%
    20:00 +22°C° 0 mm 4 mps 684 mmHg 40%
    21:00 +21°C° 0 mm 3 mps 684 mmHg 45%
    22:00 +19°C° 0 mm 2 mps 685 mmHg 51%
    23:00 +19°C° 0 mm 2 mps 685 mmHg 52%

    6 June, Saturday

    Time Temperature Precipitation Wind Pressure Humidity
    00:00 +20°C° 0 mm 1 mps 684 mmHg 53%
    01:00 +19°C° 0 mm 1 mps 684 mmHg 55%
    02:00 +19°C° 0 mm 1 mps 684 mmHg 54%
    03:00 +19°C° 0 mm 1 mps 684 mmHg 54%
    04:00 +19°C° 0 mm 1 mps 684 mmHg 53%
    05:00 +20°C° 0 mm 1 mps 685 mmHg 50%
    06:00 +20°C° 0 mm 1 mps 685 mmHg 46%
    07:00 +21°C° 0 mm 1 mps 686 mmHg 42%
    08:00 +23°C° 0 mm 2 mps 686 mmHg 38%
    09:00 +24°C° 0 mm 2 mps 686 mmHg 35%
    10:00 +26°C° 0 mm 3 mps 687 mmHg 31%
    11:00 +27°C° 0 mm 3 mps 687 mmHg 28%
    12:00 +29°C° 0 mm 4 mps 687 mmHg 26%
    13:00 +30°C° 0 mm 5 mps 687 mmHg 23%
    14:00 +30°C° 0 mm 5 mps 686 mmHg 23%
    15:00 +32°C° 0 mm 5 mps 686 mmHg 24%
    16:00 +32°C° 0 mm 5 mps 686 mmHg 25%
    17:00 +30°C° 0 mm 5 mps 686 mmHg 27%
    18:00 +29°C° 0 mm 5 mps 685 mmHg 30%
    19:00 +29°C° 0 mm 5 mps 685 mmHg 32%
    20:00 +28°C° 0 mm 5 mps 685 mmHg 34%
    21:00 +27°C° 0 mm 4 mps 685 mmHg 37%
    22:00 +26°C° 0 mm 3 mps 685 mmHg 39%
    23:00 +26°C° 0 mm 3 mps 685 mmHg 39%

    7 June, Sunday

    Time Temperature Precipitation Wind Pressure Humidity
    00:00 +26°C° 0 mm 3 mps 684 mmHg 39%
    01:00 +25°C° 0 mm 3 mps 684 mmHg 39%
    02:00 +25°C° 0 mm 3 mps 684 mmHg 39%
    03:00 +25°C° 0 mm 4 mps 683 mmHg 38%
    04:00 +25°C° 0 mm 5 mps 683 mmHg 38%
    05:00 +25°C° 0 mm 5 mps 683 mmHg 37%
    06:00 +26°C° 0 mm 5 mps 684 mmHg 36%
    07:00 +26°C° 0 mm 6 mps 684 mmHg 35%
    08:00 +28°C° 0 mm 7 mps 684 mmHg 31%
    09:00 +29°C° 0 mm 9 mps 685 mmHg 27%
    10:00 +32°C° 0 mm 10 mps 685 mmHg 23%
    11:00 +32°C° 0 mm 9 mps 685 mmHg 23%
    12:00 +33°C° 0 mm 8 mps 685 mmHg 22%
    13:00 +34°C° 0 mm 7 mps 685 mmHg 22%
    14:00 +34°C° 0 mm 7 mps 685 mmHg 23%
    15:00 +33°C° 0 mm 7 mps 684 mmHg 23%
    16:00 +33°C° 0 mm 6 mps 684 mmHg 24%
    17:00 +32°C° 0 mm 6 mps 684 mmHg 29%
    18:00 +29°C° 0 mm 6 mps 684 mmHg 34%
    19:00 +27°C° 0 mm 6 mps 683 mmHg 39%
    20:00 +26°C° 0 mm 6 mps 684 mmHg 43%
    21:00 +25°C° 0 mm 5 mps 684 mmHg 47%
    22:00 +22°C° 0 mm 5 mps 685 mmHg 51%
    23:00 +22°C° 0 mm 4 mps 684 mmHg 53%
    Show more